Weather History for Peru, IL

Change the Weather History Date:

Friday, July 20, 2012

  Actual Average Record
Temperature  
Mean Temperature 75 °F -  
Max Temperature 82 °F 87 °F 101 °F (1983)
Min Temperature 68 °F 65 °F 50 °F (1970)
Cooling Degree Days 10    
Growing Degree Days 25 (Base 50)    
Moisture  
Dew Point 63 °F    
Average Humidity 68    
Maximum Humidity 88    
Minimum Humidity 45    
Precipitation  
Precipitation 0.00 in - - ()
Sea Level Pressure  
Sea Level Pressure 30.05 in    
Wind  
Wind Speed 10 mph (NE)    
Max Wind Speed 15 mph    
Max Gust Speed 18 mph    
Visibility 10 miles    
Events      
Averages and records for this station are not official NWS values.
T = Trace of Precipitation, MM = Missing Value Source: NWS Daily Summary

Daily Weather History Graph

Daily Weather History Graph

Search for Another Location

Airport:

Trip Planner

Search our weather history database for the weather conditions in past years. The results will help you decide how hot, cold, wet, or windy it might be!

Date:

Astronomy

Jul. 20, 2012 Rise Set
Actual Time 5:40 AM CDT 8:24 PM CDT
Civil Twilight 5:08 AM CDT 8:56 PM CDT
Nautical Twilight 4:28 AM CDT 9:37 PM CDT
Astronomical Twilight 3:41 AM CDT 10:23 PM CDT
Moon 7:19 AM CDT (7/20) 9:02 PM CDT (7/20)
Length of Visible Light 15h 48m
Length of Day
14h 43m
Waxing Crescent, 3% of the Moon is Illuminated
Jul 20
Waxing Crescent
Jul 26
First Quarter
Aug 1
Full
Aug 9
Last Quarter
Aug 17
New

Hourly Weather History & Observations

Time (CDT) Temp. Heat Index Dew Point Humidity Pressure Visibility Wind Dir Wind Speed Gust Speed Precip Events Conditions
12:15 AM 70.7 °F - 64.8 °F 81% 30.00 in 10.0 mi North 9.2 mph - N/A   Overcast
12:35 AM 70.7 °F - 64.8 °F 81% 30.00 in 10.0 mi North 10.4 mph - N/A   Overcast
12:55 AM 70.7 °F - 64.8 °F 81% 29.99 in 10.0 mi North 8.1 mph - N/A   Overcast
1:15 AM 70.5 °F - 64.8 °F 82% 29.99 in 10.0 mi North 9.2 mph - N/A   Overcast
1:35 AM 70.2 °F - 64.8 °F 83% 29.99 in 10.0 mi North 11.5 mph - N/A   Overcast
1:55 AM 70.3 °F - 64.9 °F 83% 29.99 in 10.0 mi North 10.4 mph - N/A   Overcast
2:15 AM 70.3 °F - 64.6 °F 82% 29.99 in 10.0 mi NNE 11.5 mph - N/A   Overcast
2:35 AM 70.3 °F - 64.6 °F 82% 29.99 in 10.0 mi NNE 9.2 mph - N/A   Overcast
2:55 AM 70.2 °F - 64.6 °F 82% 30.00 in 10.0 mi NNE 11.5 mph - N/A   Overcast
3:15 AM 70.2 °F - 64.8 °F 83% 30.00 in 10.0 mi NNE 8.1 mph - N/A   Overcast
3:35 AM 69.8 °F - 64.4 °F 83% 30.00 in 10.0 mi North 8.1 mph - N/A   Overcast
3:55 AM 68.9 °F - 64.4 °F 86% 30.01 in 10.0 mi North 9.2 mph - N/A   Mostly Cloudy
4:15 AM 69.8 °F - 64.4 °F 83% 30.02 in 10.0 mi North 10.4 mph - N/A   Overcast
4:35 AM 69.4 °F - 64.6 °F 84% 30.02 in 10.0 mi North 8.1 mph - N/A   Overcast
4:55 AM 69.3 °F - 64.6 °F 85% 30.02 in 10.0 mi NNE 12.7 mph 17.3 mph N/A   Overcast
5:15 AM 69.8 °F - 64.4 °F 83% 30.02 in 10.0 mi NNE 11.5 mph - N/A   Overcast
5:35 AM 68.4 °F - 64.8 °F 88% 30.03 in 7.0 mi NNE 9.2 mph - N/A   Overcast
5:55 AM 68.2 °F - 64.6 °F 88% 30.03 in 10.0 mi North 10.4 mph - N/A   Overcast
6:15 AM 68.4 °F - 64.6 °F 88% 30.03 in 7.0 mi North 10.4 mph - N/A   Overcast
6:35 AM 68.2 °F - 64.4 °F 88% 30.04 in 7.0 mi North 12.7 mph - N/A   Overcast
6:55 AM 68.2 °F - 64.4 °F 88% 30.04 in 7.0 mi NNE 10.4 mph - N/A   Overcast
7:15 AM 68.5 °F - 64.4 °F 87% 30.05 in 7.0 mi NNE 10.4 mph - N/A   Overcast
7:35 AM 68.5 °F - 64.4 °F 87% 30.05 in 5.0 mi NNE 10.4 mph - N/A   Haze
7:55 AM 68.9 °F - 64.4 °F 86% 30.06 in 7.0 mi NNE 10.4 mph - N/A   Overcast
8:15 AM 69.6 °F - 64.4 °F 83% 30.06 in 10.0 mi North 10.4 mph - N/A   Overcast
8:35 AM 70.7 °F - 64.9 °F 82% 30.07 in 10.0 mi North 11.5 mph - N/A   Overcast
8:55 AM 71.6 °F - 64.8 °F 79% 30.06 in 10.0 mi NNE 12.7 mph - N/A   Overcast
9:15 AM 72.3 °F - 64.9 °F 78% 30.07 in 10.0 mi NE 12.7 mph - N/A   Overcast
9:35 AM 73.8 °F - 65.1 °F 74% 30.08 in 10.0 mi NNE 12.7 mph - N/A   Overcast
9:55 AM 73.9 °F - 64.9 °F 73% 30.08 in 10.0 mi NE 12.7 mph 17.3 mph N/A   Overcast
10:15 AM 75.2 °F - 65.1 °F 71% 30.08 in 10.0 mi NNE 12.7 mph - N/A   Mostly Cloudy
10:35 AM 75.6 °F - 64.9 °F 69% 30.08 in 10.0 mi NNE 12.7 mph 16.1 mph N/A   Overcast
10:55 AM 75.9 °F - 64.8 °F 68% 30.10 in 10.0 mi NNE 15.0 mph - N/A   Overcast
11:15 AM 75.7 °F - 64.0 °F 67% 30.10 in 10.0 mi NNE 12.7 mph - N/A   Overcast
11:35 AM 76.5 °F - 63.9 °F 65% 30.11 in 10.0 mi NNE 11.5 mph - N/A   Overcast
11:55 AM 77.5 °F - 64.6 °F 64% 30.10 in 10.0 mi NNE 11.5 mph 17.3 mph N/A   Overcast
12:15 PM 77.9 °F - 63.7 °F 61% 30.10 in 10.0 mi NNE 10.4 mph - N/A   Overcast
12:35 PM 79.0 °F - 63.9 °F 60% 30.09 in 10.0 mi NE 10.4 mph - N/A   Mostly Cloudy
1:15 PM 80.6 °F 81.9 °F 63.3 °F 55% 30.09 in 10.0 mi NNE 11.5 mph - N/A   Scattered Clouds
1:35 PM 80.6 °F 81.8 °F 62.6 °F 54% 30.09 in 10.0 mi NNE 12.7 mph 17.3 mph N/A   Scattered Clouds
1:55 PM 81.3 °F 82.6 °F 63.0 °F 54% 30.08 in 10.0 mi ENE 10.4 mph - N/A   Scattered Clouds
2:15 PM 81.7 °F 82.6 °F 62.1 °F 51% 30.08 in 10.0 mi NNE 11.5 mph - N/A   Clear
2:35 PM 82.4 °F 83.4 °F 62.8 °F 51% 30.08 in 10.0 mi NE 10.4 mph 18.4 mph N/A   Clear
3:35 PM 82.4 °F 83.4 °F 62.6 °F 51% 30.07 in 10.0 mi NE 8.1 mph - N/A   Clear
3:55 PM 82.8 °F 83.4 °F 61.5 °F 49% 30.07 in 10.0 mi NNE 11.5 mph 16.1 mph N/A   Scattered Clouds
4:15 PM 82.8 °F 83.1 °F 60.6 °F 47% 30.07 in 10.0 mi NNE 9.2 mph - N/A   Clear
4:35 PM 82.8 °F 83.1 °F 60.6 °F 47% 30.07 in 10.0 mi NNE 8.1 mph - N/A   Clear
4:55 PM 82.4 °F 82.5 °F 59.2 °F 45% 30.06 in 10.0 mi ENE 10.4 mph - N/A   Clear
5:15 PM 82.2 °F 82.4 °F 59.4 °F 46% 30.06 in 10.0 mi NNE 8.1 mph - N/A   Clear
5:35 PM 82.6 °F 82.9 °F 60.4 °F 47% 30.06 in 10.0 mi NE 10.4 mph - N/A   Clear
5:55 PM 82.2 °F 82.6 °F 59.9 °F 47% 30.06 in 10.0 mi NE 9.2 mph - N/A   Clear
6:15 PM 81.5 °F 81.8 °F 59.5 °F 47% 30.07 in 10.0 mi NE 6.9 mph - N/A   Clear
6:35 PM 81.0 °F 81.6 °F 59.9 °F 49% 30.06 in 10.0 mi ENE 8.1 mph - N/A   Clear
6:55 PM 80.6 °F 81.2 °F 60.1 °F 49% 30.06 in 10.0 mi NE 6.9 mph - N/A   Clear
7:15 PM 80.2 °F 81.0 °F 60.3 °F 50% 30.06 in 10.0 mi NE 5.8 mph - N/A   Clear
7:35 PM 80.2 °F 81.1 °F 60.4 °F 51% 30.06 in 10.0 mi NE 5.8 mph - N/A   Clear
7:55 PM 78.1 °F - 60.1 °F 54% 30.06 in 10.0 mi ENE 5.8 mph - N/A   Clear
8:15 PM 77.2 °F - 60.1 °F 55% 30.07 in 10.0 mi NE 5.8 mph - N/A   Clear
8:35 PM 75.2 °F - 60.4 °F 60% 30.06 in 10.0 mi ENE 5.8 mph - N/A   Clear
8:55 PM 74.7 °F - 61.0 °F 62% 30.06 in 10.0 mi ENE 4.6 mph - N/A   Clear
9:15 PM 75.2 °F - 59.9 °F 59% 30.07 in 10.0 mi East 3.5 mph - N/A   Clear
9:35 PM 73.6 °F - 60.1 °F 63% 30.07 in 10.0 mi East 6.9 mph - N/A   Clear
9:55 PM 72.7 °F - 59.9 °F 64% 30.07 in 10.0 mi East 6.9 mph - N/A   Clear
10:15 PM 71.8 °F - 58.8 °F 64% 30.08 in 10.0 mi East 6.9 mph - N/A   Clear
10:35 PM 71.6 °F - 58.1 °F 62% 30.08 in 10.0 mi East 4.6 mph - N/A   Clear
10:55 PM 70.7 °F - 58.3 °F 65% 30.08 in 10.0 mi East 4.6 mph - N/A   Clear
11:15 PM 70.3 °F - 57.2 °F 63% 30.08 in 10.0 mi ESE 5.8 mph - N/A   Clear
11:35 PM 71.6 °F - 57.4 °F 61% 30.08 in 10.0 mi SE 4.6 mph - N/A   Clear
11:55 PM 70.0 °F - 57.2 °F 64% 30.09 in 10.0 mi SE 4.6 mph - N/A   Clear